Change the Weather History Date:

Monday, September 1, 2014

  Actual Average Record
Temperature  
Mean Temperature 84 °F -  
Max Temperature 93 °F 86 °F 98 °F (1938)
Min Temperature 75 °F 71 °F 55 °F (1936)
Cooling Degree Days 19    
Growing Degree Days 34 (Base 50)    
Moisture  
Dew Point 74 °F    
Average Humidity 71    
Maximum Humidity 90    
Minimum Humidity 47    
Precipitation  
Precipitation 0.00 in - - ()
Sea Level Pressure  
Sea Level Pressure 30.09 in    
Wind  
Wind Speed 4 mph (WSW)    
Max Wind Speed 7 mph    
Max Gust Speed -    
Visibility 10 miles    
Events Thunderstorm    
Averages and records for this station are not official NWS values.
T = Trace of Precipitation, MM = Missing Value Source: NWS Daily Summary

Daily Weather History Graph

Daily Weather History Graph

Search for Another Location

Airport or City:

Trip Planner

Search our weather history database for the weather conditions in past years. The results will help you decide how hot, cold, wet, or windy it might be!

Date:

Astronomy

Sep. 01, 2014 Rise Set
Actual Time 6:57 AM EDT 7:47 PM EDT
Civil Twilight 6:32 AM EDT 8:12 PM EDT
Nautical Twilight 6:03 AM EDT 8:41 PM EDT
Astronomical Twilight 5:32 AM EDT 9:12 PM EDT
Moon 1:19 PM EDT (9/1) No Moon Set
Length of Visible Light 13h 39m
Length of Day
12h 49m
Waxing Crescent, 42% of the Moon is Illuminated
Sep 1
Waxing Crescent
Sep 2
First Quarter
Sep 8
Full
Sep 15
Last Quarter
Sep 24
New

Hourly Weather History & Observations

Time (EDT) Temp. Heat Index Dew Point Humidity Pressure Visibility Wind Dir Wind Speed Gust Speed Precip Events Conditions
12:56 AM 81.0 °F 87.3 °F 75.9 °F 85% 30.11 in 10.0 mi WSW 3.5 mph - N/A   Clear
1:56 AM 81.0 °F 87.3 °F 75.9 °F 85% 30.10 in 10.0 mi Calm Calm - N/A   Clear
2:56 AM 81.0 °F 87.3 °F 75.9 °F 85% 30.09 in 10.0 mi SW 3.5 mph - N/A   Clear
3:56 AM 81.0 °F 87.3 °F 75.9 °F 85% 30.07 in 10.0 mi WSW 4.6 mph - N/A   Clear
4:56 AM 79.0 °F - 75.0 °F 88% 30.08 in 10.0 mi WNW 3.5 mph - N/A   Clear
5:56 AM 77.0 °F - 73.9 °F 90% 30.09 in 10.0 mi NW 4.6 mph - N/A   Clear
6:56 AM 75.9 °F - 72.0 °F 87% 30.11 in 10.0 mi WNW 4.6 mph - N/A   Clear
7:56 AM 78.1 °F - 73.0 °F 84% 30.12 in 10.0 mi North 3.5 mph - N/A   Clear
8:56 AM 82.0 °F 86.7 °F 72.0 °F 71% 30.13 in 10.0 mi North 4.6 mph - N/A   Clear
9:56 AM 84.9 °F 90.7 °F 72.0 °F 65% 30.13 in 10.0 mi North 4.6 mph - N/A   Clear
10:56 AM 87.1 °F 93.6 °F 72.0 °F 61% 30.13 in 10.0 mi Calm Calm - N/A   Clear
11:56 AM 90.0 °F 97.9 °F 73.0 °F 57% 30.12 in 10.0 mi SSE 4.6 mph - N/A   Clear
12:56 PM 91.9 °F 98.4 °F 71.1 °F 50% 30.11 in 10.0 mi South 4.6 mph - N/A   Clear
1:56 PM 93.9 °F 100.8 °F 71.1 °F 47% 30.09 in 10.0 mi Variable 3.5 mph - N/A   Mostly Cloudy
2:56 PM 93.9 °F 102.1 °F 72.0 °F 49% 30.08 in 10.0 mi Calm Calm - N/A   Mostly Cloudy
3:56 PM 91.0 °F 101.6 °F 75.0 °F 59% 30.06 in 10.0 mi SSW 6.9 mph - N/A   Scattered Clouds
4:56 PM 91.9 °F 100.7 °F 73.0 °F 54% 30.06 in 10.0 mi SSW 4.6 mph - N/A   Scattered Clouds
5:03 PM 91.0 °F 99.3 °F 73.0 °F 55% 30.06 in 10.0 mi SSW 4.6 mph - N/A Thunderstorm Thunderstorm
5:19 PM 90.0 °F 97.9 °F 73.0 °F 57% 30.05 in 10.0 mi SSW 4.6 mph - N/A   Clear
5:56 PM 87.1 °F 96.3 °F 75.0 °F 67% 30.05 in 10.0 mi SW 5.8 mph - N/A   Clear
6:56 PM 86.0 °F 96.0 °F 75.9 °F 72% 30.06 in 10.0 mi SSW 4.6 mph - N/A   Clear
7:56 PM 84.0 °F 91.9 °F 75.0 °F 74% 30.08 in 10.0 mi SW 3.5 mph - N/A   Clear
8:56 PM 82.9 °F 90.8 °F 75.9 °F 79% 30.08 in 10.0 mi SSW 3.5 mph - N/A   Clear
9:56 PM 82.0 °F 89.4 °F 75.9 °F 82% 30.09 in 10.0 mi SW 3.5 mph - N/A   Clear
10:56 PM 82.0 °F 89.4 °F 75.9 °F 82% 30.10 in 10.0 mi WSW 3.5 mph - N/A   Clear
11:56 PM 82.0 °F 90.2 °F 77.0 °F 85% 30.09 in 10.0 mi WSW 4.6 mph - N/A   Clear